Location: Gull Harbor
(47.1000°N, 122.9000°W)
Time: 13:27:11
(UTC-08:00)

Tiangong - Visible Passes

Search period start: 09 February 2026 00:00
Search period end: 19 February 2026 00:00
Orbit: 386 x 393 km, 41.5° (Epoch: 9 February)

Date Brightness Start Highest point End Pass type
(mag) Time Alt. Az. Time Alt. Az. Time Alt. Az.
10 Feb 0.9 19:50:49 10° SW 19:51:02 11° SSW 19:51:02 11° SSW visible
11 Feb -0.1 18:53:15 10° SSW 18:55:17 16° SSE 18:55:47 15° SSE visible
12 Feb -0.2 19:30:53 10° SW 19:32:45 23° SSW 19:32:45 23° SSW visible
13 Feb -0.3 18:32:58 10° SW 18:35:28 21° SSE 18:37:21 13° ESE visible
13 Feb 0.9 20:09:08 10° WSW 20:09:40 13° WSW 20:09:40 13° WSW visible
14 Feb -0.8 19:10:58 10° WSW 19:13:46 29° S 19:14:12 28° SSE visible
15 Feb -0.5 18:12:51 10° SW 18:15:35 26° S 18:18:19 10° ESE visible
15 Feb 0.1 19:49:20 10° WSW 19:51:01 21° SW 19:51:01 21° SW visible
16 Feb -0.7 18:51:01 10° WSW 18:53:50 29° S 18:55:30 18° SE visible
17 Feb -0.2 19:29:30 10° WSW 19:32:01 21° SSW 19:32:17 21° S visible
18 Feb -0.3 18:31:02 10° WSW 18:33:44 26° S 18:36:27 10° SE visible
18 Feb 1.0 20:08:53 10° SW 20:09:05 10° SW 20:09:05 10° SW visible
